Location: Rana
(34.0895°N, 117.3200°W)
Time: 05:51:42
(UTC+00:00)

Daily predictions for brighter satellites

Satellite Brightness Start Highest point End
(mag) Time Altitude Azimuth Time Altitude Azimuth Time Altitude Azimuth
ARIANE 5 R/B 2.6 01:44:56 10° SSE 01:50:05 89° W 01:55:12 10° NNW
CZ-2D R/B 2.6 01:47:03 10° SSE 01:50:07 89° WNW 01:53:10 10° NNW
Cosmos 1864 Rocket 4.5 01:44:01 10° N 01:50:09 73° E 01:56:16 10° SSE
Cosmos 158 Rocket 4.2 01:46:23 10° SSW 01:51:13 69° WNW 01:56:04 10° NNE
COSMO-SKYMED 1 2.8 01:49:05 10° NNE 01:53:00 42° E 01:56:53 10° S
SKYMED 2 3.6 01:48:54 10° NNE 01:53:16 84° E 01:57:36 10° S
AQUARIUS 4.2 01:49:23 10° S 01:53:46 84° WSW 01:58:12 10° NNW
SeaSat 1 2.5 01:49:29 10° SE 01:54:16 59° ENE 01:59:05 10° NNW
Resurs 1-3 4.0 01:52:15 10° SE 01:56:15 39° ENE 02:00:15 10° N
SEDSat Delta rocket 3.1 01:52:25 10° WSW 01:56:31 60° S 02:00:29 10° E
Cosmos 1025 Rocket 3.1 01:53:43 10° S 01:57:52 55° E 02:02:05 10° NNE
ATLAS 5 CENTAUR R/B 2.2 01:54:15 10° NNW 01:58:47 48° ENE 02:04:19 10° SE
Milstar 3 4.3 01:54:19 10° W 02:00:51 41° SSW 02:10:37 10° SE
COSMOS 2428 3.3 01:56:51 10° N 02:02:07 36° ENE 02:07:20 10° SE
CZ-2D R/B 3.7 02:05:03 10° SE 02:08:40 41° ENE 02:12:23 10° N
Cosmos 2237 Rocket 3.6 02:06:39 10° NNE 02:10:20 17° ENE 02:13:33 11° E
ATLAS 3B R/B 4.0 02:03:52 10° NW 02:11:09 49° WSW 02:17:55 10° S
Cosmos 1315 Rocket 2.6 02:10:06 10° N 02:13:53 76° E 02:17:40 10° SSE
SAR-Lupe-1 4.0 02:11:05 10° SSE 02:14:37 89° W 02:18:12 10° NNW
Cosmos 1674 Rocket 4.0 02:10:54 10° SSW 02:15:12 67° W 02:19:36 10° N
IRS-P3 4.3 02:10:00 10° S 02:15:17 78° WSW 02:20:37 10° NNW
BREEZE-M DEB (TANK) 4.5 02:11:45 10° NNW 02:15:45 29° NE 02:22:01 12° E
Tiangong -2.2 02:13:13 10° WSW 02:16:22 81° SSE 02:18:42 17° ENE
Helios 1A Rocket 3.7 02:15:01 12° NE 02:17:03 20° E 02:19:32 10° SSE
NOSS 3-3 (C) 4.3 02:12:46 10° SW 02:17:36 53° NW 02:23:12 10° NNE
Cosmos 2219 Rocket 3.4 02:14:23 10° NW 02:19:42 46° WSW 02:24:59 10° S
SPOT 1/Viking Rocket 4.1 02:17:09 10° S 02:22:11 62° W 02:27:16 10° NNW
Cosmos 2346 Rocket 4.5 02:16:03 10° S 02:22:17 78° E 02:28:33 10° N
BlueWalker 3 2.4 02:19:25 10° NW 02:22:54 55° SW 02:26:22 10° SSE
Cosmos 2322 3.7 02:20:25 10° NNW 02:26:07 68° ENE 02:31:47 10° SSE
Cosmos 2227 Rocket 2.9 02:23:57 10° SSE 02:28:49 31° ESE 02:33:08 13° NE
Aureole 3 Rocket 2.8 02:28:48 10° N 02:32:12 37° ENE 02:35:05 10° SSE
Cosmos 1447 Rocket 4.4 02:26:21 10° S 02:32:29 86° E 02:38:38 10° N
USA 234 3.5 02:26:35 10° SE 02:33:07 75° SW 02:39:41 10° NW
CARTOSAT-1 3.4 02:30:12 10° SSE 02:34:19 61° ENE 02:38:28 10° N
CZ-3 Stage 3 4.4 02:18:31 10° W 02:39:00 46° SW 02:44:56 10° SE
OAO 1 Rocket 4.4 02:34:27 10° W 02:39:45 86° N 02:42:52 25° E
Cosmos 1356 Rocket 3.9 02:36:07 10° NNW 02:39:59 59° W 02:43:54 10° S
Cosmos 2151 Rocket 4.3 02:37:08 10° NNW 02:41:33 56° W 02:45:55 10° S
Delta 2 Rocket 2.5 02:40:17 10° W 02:43:23 76° N 02:44:16 43° ENE
Cosmos 2285 Rocket 4.1 02:41:54 10° N 02:48:12 55° ENE 02:54:25 10° SSE
Cosmos 1975 Rocket 3.1 02:48:55 10° SSE 02:53:09 51° E 02:56:41 14° NNE
YAOGAN 1 4.1 02:53:17 10° SSW 02:57:14 37° W 03:01:11 10° NNW
Atlas Centaur 2 2.8 02:49:46 10° WSW 02:57:21 65° S 03:00:37 31° ESE
CRYOSAT 2 4.3 02:53:07 10° N 02:58:01 88° W 03:02:54 10° S
Cosmos 1455 Rocket 2.9 02:56:11 10° N 03:00:27 65° E 03:04:43 10° SSE
IRAS Rocket 4.2 02:55:56 10° SSE 03:01:27 66° ENE 03:07:01 10° N
Cosmos 1513 Rocket 4.4 02:59:42 10° N 03:06:01 73° E 03:12:22 10° SSE
NOSS 3-4 (A) 4.5 03:05:18 10° NNW 03:11:44 35° NE 03:12:38 34° ENE
NOSS 3-4 (C) 4.5 03:05:35 10° NNW 03:12:00 35° NE 03:12:51 34° ENE
Cosmos 2297 Rocket 3.5 03:08:27 10° SW 03:13:41 38° WNW 03:18:57 10° N
BREEZE-M DEB (TANK) 3.2 03:15:50 10° WSW 03:19:05 73° NW 03:22:55 29° NE
Haruka 2.8 03:12:41 10° WSW 03:19:17 60° S 03:19:36 58° SSE
Cosmos 1125 Rocket 3.8 03:14:34 10° NNW 03:19:43 66° WSW 03:24:51 10° S
Resurs 01 Rocket 2.5 03:16:25 10° S 03:20:39 49° W 03:24:55 10° NNW
NOSS 0 Rocket 4.3 03:16:22 10° NNW 03:22:32 65° WSW 03:28:39 10° S
Cosmos 2344 3.5 03:18:34 10° SSW 03:27:20 84° ESE 03:31:31 29° NNE
SJ-6B 4.3 03:30:40 26° NW 03:30:40 26° NW 03:32:25 10° NNW
Cosmos 783 Rocket 4.5 03:26:03 10° S 03:30:45 68° SSE 03:30:45 68° SSE
Cosmos 1464 Rocket 3.9 03:27:42 10° N 03:34:04 84° E 03:40:21 10° S
ATLAS 5 CENTAUR R/B 4.5 03:37:13 10° WNW 03:40:59 21° WSW 03:45:14 10° SSW
SEDSat Delta rocket 4.3 03:38:03 10° W 03:40:38 32° WSW 03:40:38 32° WSW
Cosmos 2263 Rocket 2.3 03:40:40 10° SSW 03:45:33 68° SSW 03:45:33 68° SSW
Cosmos 1980 4.1 03:43:37 10° NNW 03:49:11 61° WSW 03:50:34 47° SSW
Tiangong 1.4 03:50:48 10° WNW 03:51:01 11° WNW 03:51:01 11° WNW
Cosmos 2237 Rocket 2.6 03:49:11 10° NNW 03:54:46 59° WSW 03:55:29 55° SW
Cosmos 2227 Rocket 3.9 04:07:52 10° WSW 04:12:46 30° WNW 04:15:02 23° NNW
Atlas Centaur 2 4.1 04:39:06 10° W 04:42:32 28° WSW 04:42:32 28° WSW
